• Processing (Info)

  • MPEC 2022-L51 : 2022 LK1

    The following Minor Planet Electronic Circular may be linked-to from your own Web pages, but must not otherwise be redistributed electronically.

    A form allowing access to any MPEC is at the bottom of this page.


    Read MPEC 2022-L50 Read MPEC 2022-L52


    M.P.E.C. 2022-L51                                  Issued 2022 June 7, 03:16 UT
    
         The Minor Planet Electronic Circulars contain information on unusual
             minor planets and routine data on comets.  They are published
        on behalf of Division F of the International Astronomical Union by the
              Minor Planet Center, Smithsonian Astrophysical Observatory,
                              Cambridge, MA 02138, U.S.A.
    
                 Prepared using the Tamkin Foundation Computer Network
    
                                  MPC@CFA.HARVARD.EDU
                URL https://www.minorplanetcenter.net/    ISSN 1523-6714
    
                                    2022 LK1                                 
    
    
    Observations:
         K22L01K* C2022 06 05.19646713 08 14.759+27 53 57.88         20.50GVEL051G96
         K22L01K  C2022 06 05.20167813 08 17.527+27 53 14.35         20.32GVEL051G96
         K22L01K  C2022 06 05.20687613 08 20.288+27 52 32.02         20.86GVEL051G96
         K22L01K  C2022 06 05.21208913 08 23.086+27 51 47.88         20.56GVEL051G96
         K22L01K KC2022 06 05.33325913 09 28.163+27 34 59.09         20.83GVEL051I52
         K22L01K KC2022 06 05.33571913 09 29.430+27 34 38.24         20.47GVEL051I52
         K22L01K KC2022 06 05.33695013 09 30.154+27 34 28.24         20.97GVEL051I52
         K22L01K KC2022 06 05.91646 13 14 42.10 +26 16 51.6                VEL051204
         K22L01K hC2022 06 05.92467313 14 45.91 +26 15 44.6          21.0 GVEL051L01
         K22L01K hC2022 06 05.92633113 14 46.73 +26 15 32.0          20.7 GVEL051L01
         K22L01K KC2022 06 05.94498 13 14 56.30 +26 13 04.3          20.7 GVEL051204
         K22L01K mC2022 06 06.15032013 16 43.590+25 46 41.23         21.16GVEL051I52
         K22L01K mC2022 06 06.15108713 16 43.900+25 46 35.87         20.52GVEL051I52
         K22L01K mC2022 06 06.15185413 16 44.270+25 46 29.78         20.56GVEL051I52
         K22L01K mC2022 06 06.15262213 16 44.620+25 46 23.27         20.13GVEL051I52
         K22L01K  C2022 06 06.19411013 17 04.872+25 40 59.71         21.0 GVEL051654
         K22L01K  C2022 06 06.22408513 17 19.059+25 37 06.81         20.9 GVEL051654
         K22L01K ^C2022 06 06.25576413 17 36.891+25 33 20.98         20.87GVEL051568
         K22L01K ^C2022 06 06.25765413 17 37.774+25 33 06.42         20.89GVEL051568
         K22L01K  C2022 06 06.25975813 17 35.961+25 32 29.34         20.9 GVEL051654
         K22L01K 1C2022 06 06.99318 13 23 25.26 +24 00 09.1          22.0 VXEL051033
         K22L01K 1C2022 06 06.99463 13 23 25.95 +23 59 58.2          21.1 VXEL051033
         K22L01K 1C2022 06 06.99607 13 23 26.60 +23 59 47.5          20.7 VXEL051033
    
    Observer details:
    033 Karl Schwarzschild Observatory, Tautenburg.  Observers S. Melnikov, C.
        Hoegner, U. Laux, F. Ludwig, B. Stecklum.  Measurer B. Stecklum.  1.34-m
        f/3 Schmidt + CCD.
    204 Schiaparelli Observatory.  Observer L. Buzzi.  0.84-m f/3.5 reflector +
        CCD.
    568 Mauna Kea.  Observer Y. Ramanjooloo.  Measurers R. Weryk, Y. Ramanjooloo,
        R. Wainscoat.  2.24-m University of Hawaii reflector + CCD.
    654 Table Mountain Observatory, Wrightwood-PHMC.  Observers N. Evans, P. Choi,
        N. Saini, C. Zhai, R. Trahan, M. Shao.  1.0-m Reflector + CCD.
    G96 Mt. Lemmon Survey.  Observer A. Serrano.  Measurers E. J. Christensen, D.
        Fay, J. B. Fazekas, D. C. Fuls, A. R. Gibbs, A. D. Grauer, H. Groeller, J.
        K. Hogan, R. A. Kowalski, S. M. Larson, G. J. Leonard, D. Rankin, R. L.
        Seaman, A. Serrano, F. C. Shelly, K. W. Wierzchos.  1.5-m reflector + 10K
        CCD.
    I52 Steward Observatory, Mt. Lemmon Station.  Observer G. J. Leonard.
        Measurers E. J. Christensen, D. Fay, J. B. Fazekas, D. C. Fuls, A. R.
        Gibbs, A. D. Grauer, H. Groeller, J. K. Hogan, R. A. Kowalski, S. M.
        Larson, G. J. Leonard, D. Rankin, R. L. Seaman, A. Serrano, F. C. Shelly,
        K. W. Wierzchos.  1.0-m prime focus + CCD.
    L01 Visnjan Observatory, Tican.  Observers K. Korlevic, I. Lyon.  Measurer K.
        Korlevic.  1.0-m f/2.9 reflector + CCD.
    
    Orbital elements:
    2022 LK1                                                 Earth MOID = 0.0034 AU
    Epoch 2022 Aug. 9.0 TT = JDT 2459800.5                  Veres                   
    M 151.94414              (2000.0)            P               Q                  
    n   1.06737609     Peri.  304.66532     -0.51589731     -0.85664111             
    a   0.9482534      Node   176.38515     +0.80524753     -0.48652802             
    e   0.4146729      Incl.    3.63524     +0.29227791     -0.17162897             
    P   0.92           H   23.12          G   0.15           U   7                  
    Residuals in seconds of arc
    220605 G96  0.2+  0.0     220605 L01  0.2-  0.6-    220606 654  0.1-  0.0
    220605 G96  0.0   0.3-    220605 L01  0.3-  0.0     220606 568  0.0   0.0
    220605 G96  0.2-  0.6+    220605 204  0.2-  0.2+    220606 568  0.0   0.0
    220605 G96  0.0   0.3-    220606 I52  0.5+  0.4-    220606 654  0.0   0.1+
    220605 I52 (0.5+  0.4+)   220606 I52  0.3-  0.2+    220606 033  0.8-  0.6+
    220605 I52  0.3-  0.1+    220606 I52  0.2-  0.1+    220606 033  0.3-  0.5+
    220605 I52  0.4+  0.3+    220606 I52  0.4-  0.5-    220606 033  0.3-  0.5+
    220605 204  0.1-  0.4+    220606 654  0.0   0.1+
    
    Ephemeris:
    2022 LK1                 a,e,i = 0.95, 0.41, 4                   q = 0.5550
    Date    TT    R. A. (2000) Decl.     Delta      r    Elong.  Phase     V
    2022 05 08    04 39 16.4 +34 14 22   0.1849  0.8511    28.4   145.7    26.8
    ...
    2022 05 23    08 16 40.8 +53 37 15   0.09868 0.9649    58.7   116.2    22.6
    ...
    2022 05 31    11 59 03.9 +41 19 24   0.09944 1.0204    91.0    83.4    21.1
    ...
    2022 06 06    13 15 26.7 +26 06 28   0.1238  1.0594   107.9    65.7    21.0
    2022 06 07    13 23 30.9 +24 00 05   0.1291  1.0657   109.9    63.6    21.1
    2022 06 08    13 30 45.1 +22 02 01   0.1347  1.0718   111.6    61.7    21.1
    ...
    2022 06 14    14 02 20.3 +12 44 01   0.1725  1.1075   118.2    53.9    21.5
    ...
    2022 06 22    14 27 57.6 +04 50 42   0.2298  1.1511   120.8    49.3    22.1
    ...
    2022 07 07    14 59 11.9 -03 40 35   0.3493  1.2207   118.1    47.3    23.1
    
    M. P. C. Staff               (C) Copyright 2022 MPC           M.P.E.C. 2022-L51
    


    Read MPEC 2022-L50 Read MPEC 2022-L52


    MPEC number:

    Enter an MPEC number in one of the following forms:

    • 1997-B01 (the full form)
    • J97B01 (the packed version of the full form)
    • B01 (the abbreviated form)